Regional Weather Roundup
Issued by NWS Upton, NY

Current Version | Previous Version | Text Only | Print | Product List | Glossary On
Versions: 1 2 3 4 5 6 7 8 9 10 11 12 13 14 15 16 17 18 19 20 21 22 23 24 25 26 27 28 29 30 31 32 33 34 35 36 37 38 39 40 41 42 43 44 45 46 47 48 49
010
ASUS41 KOKX 141104
RWROKX

REGIONAL WEATHER ROUNDUP
NATIONAL WEATHER SERVICE NEW YORK NY
600 AM EST SUN FEB 14 2016

NOTE: "FAIR" INDICATES FEW OR NO CLOUDS BELOW 12,000 FEET WITH NO
SIGNIFICANT WEATHER AND/OR OBSTRUCTIONS TO VISIBILITY.

NYZ071-072-176-178-NJZ106-104-141200-
NEW YORK CITY METRO AREA


CITY           SKY/WX    TMP DP  RH WIND       PRES   REMARKS
CENTRAL PARK   CLEAR      1 -18  40 NW16G28   30.45R WCI -19
LAGUARDIA APRT PTCLDY     3 -11  52 NW22G36   30.44R WCI -19
KENNEDY INTL   PTCLDY     3 -19  35 NW29      30.45R WCI -21
NEWARK/LIBERTY CLEAR      2 -17  41 NW18G25   30.45R WCI -19
BRNX BOT. GARD   N/A      1 -17  42 N26       30.42S WCI -23
TETERBORO      PTCLDY     1 -19  38 N13G26    30.46R WCI -17
$$

NYZ177-179-078>081-141200-
LONG ISLAND NEW YORK

CITY           SKY/WX    TMP DP  RH WIND       PRES   REMARKS
FARMINGDALE    CLEAR      4 -16  39 NW15G26   30.42R WCI -14
ISLIP          PTCLDY     1 -13  51 NW16      30.38R WCI -19
SHIRLEY        CLEAR     -1 -12  59 NW15      30.40R WCI -21
RIVERHEAD        N/A      1 -24  29 W13       30.36R WCI -16
WESTHAMPTON    CLEAR     -3 -13  62 NW20G30   30.39R WCI -26
EAST HAMPTON   FAIR      -2 -14  57 NW20G29   30.34R WCI -25
MONTAUK POINT    N/A     -1 -10  65 NW18G30   30.35R WCI -22
$$

NYZ052-065-067-141200-
HUDSON VALLEY

CITY           SKY/WX    TMP DP  RH WIND       PRES   REMARKS
WHITE PLAINS   PTCLDY    -2 -17  49 NW15      30.36R WCI -22
NEWBURGH       CLEAR     -6 -18  54 NW12      30.40R WCI -24
MONTGOMERY     CLEAR     -5 -20  48 NW9       30.41R WCI -22
POUGHKEEPSIE   CLEAR     -6 -22  46 N5        30.45R WCI -17
ALBANY         PTCLDY   -13 -26  52 NW10      30.48R WCI -32
$$

NJZ001-105-106-008-010-013-015-019>022-104-141200-
NEW JERSEY

CITY           SKY/WX    TMP DP  RH WIND       PRES   REMARKS
NEWARK/LIBERTY CLEAR      2 -17  41 NW18G25   30.45R WCI -19
TETERBORO      PTCLDY     1 -19  38 N13G26    30.46R WCI -17
CALDWELL       PTCLDY     0 -18  42 NW10G18   30.46R WCI -16
MORRISTOWN     PTCLDY     1 -18  39 NW13G18   30.44R WCI -16
SOMERVILLE     CLEAR      3 -13  47 NW9       30.44R WCI -12
SUSSEX         CLEAR     -5 -18  53 NW14G24   30.41R WCI -25
ANDOVER          N/A     -4 -17  53 N6        30.42R WCI -16
TRENTON        CLEAR      4 -10  52 NW9       30.44R WCI -10
MILLVILLE      CLEAR     10  -7  46 NW8       30.47R WCI  -2
ATLANTIC CITY  CLEAR      9  -8  46 NW13      30.45R WCI  -7
WRIGHTSTOWN    NOT AVBL
TOMS RIVER     CLEAR      7 -11  43 NW9G17    30.45R WCI  -7
BELMAR         CLEAR      5 -17  36 NW10      30.42R WCI -10
$$

PAZ047>061-062-071-141200-
EASTERN PENNSYLVANIA

CITY           SKY/WX    TMP DP  RH WIND       PRES   REMARKS
PHILADELPHIA   PTCLDY    10 -10  40 NW9       30.49R WCI  -3
ALLENTOWN      CLEAR      3 -11  52 NW10      30.45R WCI -12
SCRANTON       CLEAR    N/A N/A N/A N9        30.41R
$$

CTZ002-004>006-009-010-012-RIZ004-006-007-MAZ004-011-015-141200-
SOUTHERN NEW ENGLAND
 IN CT

CITY           SKY/WX    TMP DP  RH WIND       PRES   REMARKS
BRADLEY INTL   CLEAR    -11 -27  45 NW8       30.38R WCI -28
HARTFORD       CLEAR     -8 -24  45 NW10G18   30.41R WCI -26
DANBURY        CLEAR     -9 -24  48 N10       30.39R WCI -27
WTRBRY/OXFORD  CLEAR    N/A N/A N/A N9        30.33R
BRIDGEPORT     CLEAR     -5 -21  46 NW13      30.42R WCI -24
MERIDEN        CLEAR     -6 -27  35 NW12G20   30.38R WCI -25
NEW HAVEN      CLEAR     -6 -22  46 N13G22    30.40R WCI -25
CHESTER        FAIR      -8 -26  41 NW12G20   30.31R WCI -27
GROTON         CLEAR     -7 -20  53 NW20G29   30.35R WCI -31
WILLIMANTIC    CLEAR     -9 -26  43 NW10      30.34R WCI -27

 IN RI

CITY           SKY/WX    TMP DP  RH WIND       PRES   REMARKS
PROVIDENCE     PTCLDY    -9 -25  45 NW16      30.32R WCI -32
BLOCK ISLAND   MOCLDY    -4 -11  71 NW18G26   30.28R WCI -26
WESTERLY       CLEAR     -8 -25  43 NW12G23   30.33R WCI -27

 IN MA

CITY           SKY/WX    TMP DP  RH WIND       PRES   REMARKS
BOSTON         PTCLDY    -9 -24  48 NW18G31   30.29R WCI -33
WORCESTER      CLEAR    -15 -28  52 NW20G30   30.17R WCI -41
WESTFIELD      CLEAR    -12 -28  45 VRB5G18   30.37R WCI -24
PROVINCETOWN   LGT SNOW  -1  -5  82 NW22G31   30.23R VSB 3/4 WCI -24
NANTUCKET      CLOUDY    -1 -11  62 NW22G31   30.22R HAZE    WCI -24
$$

ANZ330-335-338-340-345-350-353-355-141200-
COASTAL MARINE OBSERVATIONS


STATION/POSITION TIME  SKY/WX   TEMP    WIND        PRES    VSBY  WAVE
                                AIR SEA DIR/SP/G                  HT/PER
                 (UTC)          (F)     (DEG/KT/KT) (MB)    (MI)  (FT/S)
NY HARB ENTRANCE 0950             9 44  310/ 21/ 29 1028.9          4/ 5
4S FIRE IS       NOT AVBL
20S FIRE ISLAND  0950             9 40  320/ 25/ 33 1027.8          6/ 6
GREAT SOUTH BAY  NOT AVBL
23SW MTP         1050             6 43  310/ 31/ 41 1026.6          9/ 6
HUDSON CANYON    0950            16 48              1026.1         12/ 8
KINGS POINT      1006             4 31   10/ 23/ 30 1029.4
EXECUTION ROCKS  NOT AVBL
CENTRAL LI SOUND 1000             1     310/ 21/ 27   N/A           4/ 4
EASTERN LI SOUND 1000             3 40  290/ 21/ 31   N/A
ROBBINS REEF     1006             3     320/ 23/ 31 1029.1
$$


>>>>>>>>>>>>>>>>>>>>>>>>>>>> KEY <<<<<<<<<<<<<<<<<<<<<<<<<<<
>                                                          <
>     SKY/WX - SKY CONDITION/PRESENT WEATHER               <
>     TMP    - TEMPERATURE IN FAHRENHEIT                   <
>     DP     - DEWPOINT IN FAHRENHEIT                      <
>     RH     - RELATIVE HUMIDITY IN PERCENT                <
>     WIND   - DIRECTION AND SPEED IN MPH                  <
>     PRES   - MEAN SEA LEVEL PRESSURE IN INCHES OF HG     <
>     WCI    - WIND CHILL INDEX                            <
>     VSB    - VISIBILITY IN MILES                         <
>     HX     - HEAT INDEX                                  <
>     TC     - TEMPERATURE IN CELSIUS                      <
>     VRB    - VARIABLE WIND DIRECTION                     <
>                                                          <
>>>>>>>>>>>>>>>>>>>>>>>>>>>> KEY <<<<<<<<<<<<<<<<<<<<<<<<<<<






USA.gov is the U.S. government's official web portal to all federal, state and local government web resources and services.